Погода в Ятагане

Турция     37°20′39″N   28°08′17″E
темп.,
°C
ветер,
м/с
пор.,
м/с
влажн.,
%
обл.,
%
осадки,
мм/ч
давл.,
гПа
погр.,
м
20 июня, вс
вс2000:00+19с22652 0.0 101121
03:00+18ссз22660 0.0 101017
06:00+17с22710 0.0 101018
09:00+23сз33510 0.0 1010603
12:00+27зсз33396 0.0 10091752
15:00+28зюз853838 0.1 10081669
18:00+26сз454388 0.4 10081658
21:00+22ссв115639 0.8 100918
21 июня, пн
пн2100:00+18с127321 0.6 101016
03:00+17с22794 0.8 100920
06:00+16ссз22822 0.0 101016
09:00+22ссз33570 0.0 1010566
12:00+27зсз33408 0.0 10101802
15:00+28з243241 0.0 10092345
18:00+24ююз455156 0.8 1010771
21:00+20ю11640 0.8 101111
22 июня, вт
вт2200:00+18с01715 0.0 101211
03:00+18ссв2269100 0.0 101115
06:00+17с22694 0.0 101115
09:00+23сз33490 0.0 1012625
12:00+28сз44351 0.0 10111843
15:00+29сз55305 0.0 10112123
18:00+28сз463566 0.0 10101965
21:00+22сз11540 0.0 101214
23 июня, ср
ср2300:00+20ссз22620 0.0 101317
03:00+19ссз22660 0.0 101318
06:00+18с22700 0.0 101315
09:00+25ссз34440 0.0 1013737
12:00+30с45240 0.0 10132019
15:00+33ссз55210 0.0 10122637
18:00+32с34210 0.0 10122711
21:00+24св11380 0.0 101318
24 июня, чт
чт2400:00+23с22430 0.0 101414
03:00+21с22500 0.0 101415
06:00+20с22570 0.0 101421
09:00+27ссз46370 0.0 1014963
12:00+31с68250 0.0 10132074
15:00+33ссв77230 0.0 10122701
18:00+33ссв67230 0.0 10112707
21:00+26с23360 0.0 101224